Fort Stockton, TX

2:31 AM CST on January 22, 2017 (GMT -0600)
Fort Stockton-Pecos County

Weather History for KFST - April, 2014

Change the Weather History Date:

Saturday, April 5, 2014

  Actual Average Record
Temperature  
Mean Temperature 64 °F -  
Max Temperature 75 °F 75 °F 93 °F (2001)
Min Temperature 53 °F 49 °F 42 °F (2009)
Degree Days  
Heating Degree Days 1    
Growing Degree Days 14 (Base 50)    
Moisture  
Dew Point 31 °F    
Average Humidity 33    
Maximum Humidity 49    
Minimum Humidity 20    
Precipitation  
Precipitation 0.00 in - - ()
Sea Level Pressure  
Sea Level Pressure 29.75 in    
Wind  
Wind Speed 18 mph (SE)    
Max Wind Speed 29 mph    
Max Gust Speed 38 mph    
Visibility 10 miles    
Events      
Averages and records for this station are not official NWS values.
T = Trace of Precipitation, MM = Missing Value Source: NWS Daily Summary

Daily Weather History Graph

Daily Weather History Graph

Search for Another Location

Airport or City:

Trip Planner

Search our weather history database for the weather conditions in past years. The results will help you decide how hot, cold, wet, or windy it might be!

Date:

Astronomy

Apr. 05, 2014 Rise Set
Actual Time 7:35 AM CDT 8:13 PM CDT
Civil Twilight 7:11 AM CDT 8:37 PM CDT
Nautical Twilight 6:42 AM CDT 9:06 PM CDT
Astronomical Twilight 6:13 AM CDT 9:35 PM CDT
Moon 11:59 AM CDT (4/5) 1:11 AM CDT (4/5)
Length of Visible Light 13h 26m
Length of Day
12h 37m
Waxing Crescent, 34% of the Moon is Illuminated
Apr 5
Waxing Crescent
Apr 7
First Quarter
Apr 15
Full
Apr 22
Last Quarter
Apr 29
New

Hourly Weather History & Observations

Time (CDT) Temp. Dew Point Humidity Pressure Visibility Wind Dir Wind Speed Gust Speed Precip Events Conditions
12:53 AM 59.0 °F 19.0 °F 21% 29.91 in 10.0 mi SE 10.4 mph - N/A   Clear
1:53 AM 57.9 °F 23.0 °F 26% 29.88 in 10.0 mi SE 10.4 mph - N/A   Clear
2:53 AM 57.9 °F 28.9 °F 33% 29.87 in 10.0 mi SE 13.8 mph - N/A   Clear
3:53 AM 57.0 °F 30.9 °F 37% 29.85 in 10.0 mi SE 18.4 mph 25.3 mph N/A   Clear
4:53 AM 57.0 °F 32.0 °F 39% 29.83 in 10.0 mi SSE 17.3 mph 25.3 mph N/A   Clear
5:53 AM 55.0 °F 30.9 °F 40% 29.81 in 10.0 mi SSE 19.6 mph - N/A   Clear
6:53 AM 54.0 °F 28.0 °F 37% 29.80 in 10.0 mi SE 20.7 mph 29.9 mph N/A   Clear
7:53 AM 53.1 °F 28.9 °F 40% 29.80 in 10.0 mi SE 21.9 mph 31.1 mph N/A   Clear
8:53 AM 53.1 °F 28.9 °F 40% 29.79 in 10.0 mi SE 26.5 mph 38.0 mph N/A   Clear
9:53 AM 54.0 °F 30.9 °F 41% 29.83 in 10.0 mi SSE 28.8 mph 38.0 mph N/A   Clear
10:53 AM 57.0 °F 30.9 °F 37% 29.83 in 10.0 mi SSE 25.3 mph 33.4 mph N/A   Clear
11:53 AM 60.1 °F 32.0 °F 35% 29.81 in 10.0 mi South 25.3 mph 33.4 mph N/A   Clear
12:53 PM 64.0 °F 32.0 °F 30% 29.78 in 10.0 mi South 25.3 mph 31.1 mph N/A   Clear
1:53 PM 68.0 °F 32.0 °F 26% 29.74 in 10.0 mi SSE 20.7 mph 28.8 mph N/A   Clear
2:53 PM 71.1 °F 32.0 °F 24% 29.69 in 10.0 mi SSE 21.9 mph 28.8 mph N/A   Clear
3:53 PM 73.9 °F 32.0 °F 21% 29.63 in 10.0 mi SSE 23.0 mph 35.7 mph N/A   Clear
4:53 PM 75.9 °F 32.0 °F 20% 29.60 in 10.0 mi SE 26.5 mph 35.7 mph N/A   Clear
5:53 PM 72.0 °F 32.0 °F 23% 29.58 in 10.0 mi SE 21.9 mph 31.1 mph N/A   Partly Cloudy
6:53 PM 69.1 °F 33.1 °F 26% 29.61 in 10.0 mi SE 17.3 mph 28.8 mph N/A   Mostly Cloudy
7:53 PM 66.0 °F 34.0 °F 30% 29.66 in 10.0 mi East 18.4 mph - N/A   Scattered Clouds
8:53 PM 62.1 °F 35.1 °F 37% 29.68 in 10.0 mi East 17.3 mph - N/A   Clear
9:53 PM 60.1 °F 36.0 °F 41% 29.69 in 10.0 mi ESE 18.4 mph 27.6 mph N/A   Clear
10:53 PM 57.9 °F 37.0 °F 46% 29.71 in 10.0 mi SE 19.6 mph 26.5 mph N/A   Clear
11:53 PM 57.0 °F 37.9 °F 49% 29.71 in 10.0 mi SE 15.0 mph 25.3 mph N/A   Clear